Regional Weather Roundup
Issued by NWS Kansas City/Pleasant Hill, MO

Home | Current Version | Previous Version | Text Only | Print | Product List | Glossary On
Versions: 1 2 3 4 5 6 7 8 9 10 11 12 13 14 15 16 17 18 19 20 21 22 23 24 25 26 27 28 29 30 31 32 33 34 35 36 37 38 39 40 41 42 43 44 45 46 47 48 49 50
000
ASUS43 KEAX 081310
RWREAX

WEATHER ROUNDUP FOR EASTERN KANSAS AND NORTHWEST MISSOURI
NATIONAL WEATHER SERVICE KANSAS CITY/PLEASANT HILL MO
700 AM CST THU DEC 08 2016

KSZ040-057-103>105-MOZ028-029-037-043-081400-
...KANSAS CITY METROPOLITAN AREA...

CITY           SKY/WX    TMP DP  RH WIND       PRES   REMARKS
K.C. INTL      CLEAR     14   5  67 NW12      30.54R WCI   0
K.C. DOWNTOWN  CLEAR     17   6  62 NW12G20   30.58R WCI   4
LEES SUMMIT    CLEAR     15   6  67 W16G23    30.54R WCI  -1
OLATHE - IXD   CLEAR     14   7  73 NW9       30.57R WCI   2
OLATHE - OJC   CLEAR     14   5  67 NW14G21   30.56R WCI  -1
LAWRENCE       CLEAR     14   7  73 W12       30.59R WCI   0

$$

MOZ001>008-011>017-020>025-030>033-038>040-044>046-053-054-081400-
...NORTHERN AND CENTRAL MISSOURI...

CITY           SKY/WX    TMP DP  RH WIND       PRES   REMARKS
ST. JOSEPH     CLEAR     14   5  67 NW12      30.57R WCI   0
MOSBY          SUNNY     18   9  68 W12       30.55R WCI   5
WARRENSBURG    CLEAR     16   9  73 W8        30.55R WCI   5
WHITEMAN AFB   PTCLDY    16   9  73 W9        30.53R WCI   4
CLINTON        CLEAR     18   9  68 W7        30.56R WCI   8
SEDALIA        CLEAR     17   9  70 W10       30.53R WCI   5
WARSAW         NOT AVBL
CHILLICOTHE      N/A     15   6  67 NW10      30.52R WCI   2
KIRKSVILLE     CLEAR     14   7  73 W14       30.45R WCI  -1

$$

MOZ041-047>049-056>058-063>065-088>090-097-081400-
...EASTERN AND SOUTHERN MISSOURI...

CITY           SKY/WX    TMP DP  RH WIND       PRES   REMARKS
ST. LOUIS INTL PTCLDY    22  10  60 W16       30.44R WCI   8
SPIRIT OF STL  CLEAR     20  11  68 W12       30.46R WCI   8
COLUMBIA       CLEAR     17   9  70 W10       30.48R WCI   5
JEFFERSON CITY CLEAR     19   9  65 W10       30.52R WCI   7
ROLLA          CLEAR     17   9  70 W12       30.45R WCI   4
OSAGE BEACH    CLEAR     18  10  71 NW9       30.52R WCI   7
SPRINGFIELD    CLEAR     18  10  71 W8        30.53R WCI   8
BRANSON        MOCLDY    19  10  68 W6        30.54R WCI  11
JOPLIN         CLOUDY    17  10  74 NW5       30.60R WCI  10
WEST PLAINS    CLOUDY    20  11  68 W7        30.48R WCI  11

$$

IAZ060-094-KSZ022-034>040-054-083-096-NEZ052-066-093-081400-
...KANSAS...SOUTHEAST NEBRASKA AND IOWA...

CITY           SKY/WX    TMP DP  RH WIND       PRES   REMARKS
TOPEKA         CLEAR     15   5  64 W10       30.60R WCI   2
MANHATTAN      CLEAR     14   4  64 W3        30.63R
EMPORIA        CLEAR     13   6  74 NW12      30.60R WCI  -1
CHANUTE        CLEAR     16   8  71 NW10      30.61R WCI   4
WICHITA        PTCLDY    16   6  65 N13       30.64R WCI   2
OMAHA          PTCLDY    11   2  67 NW21      30.55R WCI  -8
LINCOLN        CLEAR     11   2  67 NW12G22   30.59R WCI  -3
FALLS CITY     CLEAR     13   5  70 NW12      30.57R WCI  -1
LAMONI         CLEAR     12   6  77 W17       30.46R WCI  -5
DES MOINES     PTCLDY    12   4  70 NW21G31   30.44R WCI  -7

$$




USA.gov is the U.S. government's official web portal to all federal, state and local government web resources and services.